Weather History for Hutchinson, KS

Change the Weather History Date:

Saturday, December 15, 2012

  Actual Average Record
Temperature  
Mean Temperature 47 °F -  
Max Temperature 59 °F 42 °F 64 °F (2006)
Min Temperature 35 °F 20 °F 3 °F (2008)
Degree Days  
Heating Degree Days 18    
Moisture  
Dew Point 39 °F    
Average Humidity 70    
Maximum Humidity 87    
Minimum Humidity 41    
Precipitation  
Precipitation 0.00 in - - ()
Sea Level Pressure  
Sea Level Pressure 29.60 in    
Wind  
Wind Speed 15 mph (West)    
Max Wind Speed 24 mph    
Max Gust Speed 32 mph    
Visibility 10 miles    
Events Rain    
Averages and records for this station are not official NWS values.
T = Trace of Precipitation, MM = Missing Value Source: NWS Daily Summary

Daily Weather History Graph

Daily Weather History Graph

Search for Another Location

Airport:

Trip Planner

Search our weather history database for the weather conditions in past years. The results will help you decide how hot, cold, wet, or windy it might be!

Date:

Astronomy

Dec. 15, 2012 Rise Set
Actual Time 7:40 AM CST 5:12 PM CST
Civil Twilight 7:11 AM CST 5:42 PM CST
Nautical Twilight 6:38 AM CST 6:15 PM CST
Astronomical Twilight 6:06 AM CST 6:47 PM CST
Moon 9:36 AM CST (12/15) 8:16 PM CST (12/15)
Length of Visible Light 10h 31m
Length of Day
9h 32m
Waxing Crescent, 8% of the Moon is Illuminated
Dec 15
Waxing Crescent
Dec 19
First Quarter
Dec 28
Full
Jan 4
Last Quarter
Jan 11
New

Hourly Weather History & Observations

Time (CST) Temp. Windchill Dew Point Humidity Pressure Visibility Wind Dir Wind Speed Gust Speed Precip Events Conditions
1:52 AM 48.9 °F - 42.1 °F 77% 29.40 in 10.0 mi South 23.0 mph 31.1 mph N/A   Mostly Cloudy
2:52 AM 48.0 °F - 41.0 °F 77% 29.39 in 10.0 mi SSW 19.6 mph 32.2 mph 0.00 in Rain Light Rain
3:30 AM 48.2 °F - 39.2 °F 71% 29.43 in 10.0 mi SW 15.0 mph - 0.00 in   Overcast
3:52 AM 48.9 °F - 39.9 °F 71% 29.41 in 10.0 mi SW 12.7 mph - 0.00 in   Overcast
4:52 AM 50.0 °F - 43.0 °F 77% 29.45 in 10.0 mi West 17.3 mph 31.1 mph N/A   Overcast
5:40 AM 48.2 °F - 44.6 °F 87% 29.51 in 10.0 mi West 15.0 mph 23.0 mph N/A   Partly Cloudy
5:52 AM 48.9 °F - 44.1 °F 83% 29.49 in 10.0 mi West 12.7 mph 20.7 mph N/A   Clear
6:52 AM 48.0 °F - 43.0 °F 83% 29.57 in 10.0 mi West 11.5 mph - N/A   Scattered Clouds
7:06 AM 48.2 °F - 44.6 °F 87% 29.59 in 10.0 mi West 20.7 mph 25.3 mph N/A   Mostly Cloudy
7:14 AM 48.2 °F - 44.6 °F 87% 29.59 in 10.0 mi WNW 24.2 mph 29.9 mph N/A   Overcast
7:52 AM 46.9 °F - 42.1 °F 83% 29.60 in 10.0 mi West 17.3 mph - N/A   Overcast
8:50 AM 48.2 °F - 42.8 °F 82% 29.63 in 10.0 mi WNW 15.0 mph - N/A   Scattered Clouds
8:52 AM 48.0 °F - 41.0 °F 77% 29.62 in 10.0 mi West 16.1 mph - N/A   Partly Cloudy
9:52 AM 48.0 °F - 37.9 °F 68% 29.65 in 10.0 mi West 15.0 mph 23.0 mph N/A   Clear
10:52 AM 51.1 °F - 39.0 °F 63% 29.66 in 10.0 mi WNW 15.0 mph 23.0 mph N/A   Clear
11:52 AM 54.0 °F - 37.0 °F 53% 29.63 in 10.0 mi WNW 15.0 mph - N/A   Clear
12:52 PM 57.0 °F - 39.0 °F 51% 29.63 in 10.0 mi WNW 10.4 mph - N/A   Clear
1:52 PM 59.0 °F - 39.0 °F 48% 29.63 in 10.0 mi WSW 9.2 mph - N/A   Clear
2:52 PM 59.0 °F - 37.0 °F 44% 29.65 in 10.0 mi West 10.4 mph - N/A   Clear
3:52 PM 59.0 °F - 35.1 °F 41% 29.65 in 10.0 mi West 11.5 mph - N/A   Clear
4:52 PM 55.0 °F - 35.1 °F 47% 29.67 in 10.0 mi West 8.1 mph - N/A   Clear
5:52 PM 50.0 °F - 35.1 °F 57% 29.68 in 10.0 mi West 6.9 mph - N/A   Clear
6:52 PM 45.0 °F - 34.0 °F 65% 29.70 in 10.0 mi Calm Calm - N/A   Clear
7:52 PM 41.0 °F - 33.1 °F 73% 29.71 in 10.0 mi Calm Calm - N/A   Mostly Cloudy
8:52 PM 36.0 °F 33.3 °F 30.9 °F 82% 29.71 in 10.0 mi NNW 3.5 mph - N/A   Clear
9:52 PM 35.1 °F 31.0 °F 30.9 °F 85% 29.72 in 10.0 mi NW 4.6 mph - N/A   Clear
10:52 PM 43.0 °F 38.2 °F 35.1 °F 74% 29.70 in 10.0 mi NNE 8.1 mph - N/A   Clear
11:52 PM 42.1 °F 37.1 °F 36.0 °F 79% 29.70 in 10.0 mi NNE 8.1 mph - N/A   Clear